This demonstration page uses our WeatherBlox Daily Observations layout. Learn more.

Left ArrowRight Arrow

41.55636, -103.73856

Hourly Observations for July 29, 2015

Temp ( °F °C ) Dew Point ( °F °C ) Humidity (%) Winds ( mph kmh ) Pressure ( in mb ) Visibility ( mi km ) Precip ( " mm )
12:53 am 00:53 Clear 54 12.2 44 6.7 69 69 N 5 7 30.14 1021 10 16.0934 0 0
1:53 am 01:53 Clear 55 12.8 43 6.1 64 64 N 3 6 30.15 1021 10 16.0934 0 0
2:53 am 02:53 Clear 52 11.1 46 7.8 80 80 NNW 3 6 30.16 1022 10 16.0934 0 0
3:53 am 03:53 Clear 50 10 46 7.8 86 86 NW 3 6 30.19 1022 10 16.0934 0 0
4:53 am 04:53 Clear 51 10.6 45 7.2 80 80 undefined N/A 30.19 1022 10 16.0934 0 0
5:53 am 05:53 Sunny 49 9.4 45 7.2 86 86 undefined N/A 30.2 1023 10 16.0934 0 0
6:53 am 06:53 Mostly Cloudy 52 11.1 47 8.3 83 83 Calm 30.22 1023 10 16.0934 0 0
7:53 am 07:53 Sunny 60 15.6 46 7.8 60 60 Calm 30.24 1024 10 16.0934 0 0
8:53 am 08:53 Sunny 63 17.2 47 8.3 56 56 E 8 13 30.24 1024 10 16.0934 0 0
9:53 am 09:53 Sunny 69 20.6 46 7.8 44 44 ESE 13 20 30.22 1024 10 16.0934 0 0
10:53 am 10:53 Sunny 71 21.7 46 7.8 41 41 ESE 13 20 30.21 1023 10 16.0934 0 0
11:53 am 11:53 Sunny 76 24.4 48 8.9 37 37 ESE 10 17 30.18 1022 10 16.0934 0 0
12:53 pm 12:53 Sunny 79 26.1 47 8.3 32 32 E 9 15 30.16 1021 10 16.0934 0 0
1:53 pm 13:53 Sunny 83 28.3 48 8.9 30 30 S 10 17 30.12 1020 10 16.0934 0 0
2:53 pm 14:53 Sunny 85 29.4 49 9.4 29 29 S 10 17 30.1 1019 10 16.0934 0 0
3:53 pm 15:53 Sunny 86 30 50 10 29 29 S 9 15 30.09 1019 10 16.0934 0 0
4:53 pm 16:53 Sunny 86 30 48 8.9 27 27 SSE 5 7 30.07 1018 10 16.0934 0 0
5:53 pm 17:53 Sunny 86 30 50 10 29 29 ESE 12 19 30.06 1018 10 16.0934 0 0
6:53 pm 18:53 Sunny 83 28.3 53 11.7 36 36 S 7 11 30.06 1018 10 16.0934 0 0
7:53 pm 19:53 Partly Cloudy 79 26.1 53 11.7 41 41 SE 7 11 30.06 1018 10 16.0934 0 0
8:53 pm 20:53 Partly Cloudy 71 21.7 58 14.4 63 63 undefined N/A 30.09 1019 10 16.0934 0 0
9:53 pm 21:53 Partly Cloudy 69 20.6 55 12.8 61 61 ESE 7 11 30.11 1020 10 16.0934 0 0
10:53 pm 22:53 Mostly Cloudy 69 20.6 52 11.1 55 55 E 9 15 30.11 1020 10 16.0934 0 0
11:43 pm 23:43 Mostly Cloudy with Thunderstorms 68 20 51 10.6 55 55 ESE 7 11 30.06 1018 10 16.0934 0 0
11:53 pm 23:53 Cloudy with Thunderstorms 70 21.1 49 9.4 47 47 NE 8 13 30.12 1020 10 16.0934 0 0

Powered by AerisWeather